This is the latest recevied weather packets stored in our database for station/object IW2LSY-11. If no packets are shown the sender has not sent any weather packets the latest 10 day(s).
| Time | Temp. | Humidity | Pressure | Rain* | Wind** | Luminosity | Snow |
|---|---|---|---|---|---|---|---|
| 1778071812 | 16.11° C | 55% | 1010 hPa | - | - | 279 W/m² | - |
| 1778071212 | 15° C | 60% | 1010 hPa | - | - | 280 W/m² | - |
| 1778070612 | 15° C | 62% | 1009.9 hPa | - | - | 281 W/m² | - |
| 1778070012 | 15° C | 75% | 1010.1 hPa | - | - | 281 W/m² | - |
| 1778069412 | 14.44° C | 81% | 1010 hPa | - | - | 283 W/m² | - |
| 1778068812 | 15° C | 78% | 1009.9 hPa | - | - | 285 W/m² | - |
| 1778068213 | 14.44° C | 75% | 1010 hPa | - | - | 287 W/m² | - |
| 1778067614 | 15° C | 78% | 1010.3 hPa | - | - | 288 W/m² | - |
| 1778067014 | 13.89° C | 79% | 1010.4 hPa | - | - | 289 W/m² | - |
| 1778066415 | 14.44° C | 85% | 1010.5 hPa | - | - | 290 W/m² | - |
| 1778065815 | 13.89° C | 86% | 1010.6 hPa | - | - | 291 W/m² | - |
| 1778065215 | 14.44° C | 83% | 1010.7 hPa | - | - | 292 W/m² | - |
| 1778064605 | 14.44° C | 80% | 1010.7 hPa | - | - | 293 W/m² | - |
| 1778064005 | 14.44° C | 79% | 1010.6 hPa | - | - | 294 W/m² | - |
| 1778063406 | 14.44° C | 79% | 1010.6 hPa | - | - | 295 W/m² | - |
| 1778062807 | 14.44° C | 83% | 1010.7 hPa | - | - | 295 W/m² | - |
| 1778062207 | 14.44° C | 85% | 1010.5 hPa | - | - | 296 W/m² | - |
| 1778061608 | 14.44° C | 85% | 1010.2 hPa | - | - | 297 W/m² | - |
| 1778061009 | 14.44° C | 79% | 1009.6 hPa | - | - | 297 W/m² | - |
| 1778060409 | 13.89° C | 79% | 1009.5 hPa | - | - | 297 W/m² | - |
| 1778059809 | 13.89° C | 78% | 1009.5 hPa | - | - | 297 W/m² | - |
| 1778059210 | 14.44° C | 76% | 1009.5 hPa | - | - | 298 W/m² | - |
| 1778058610 | 14.44° C | 68% | 1009.5 hPa | - | - | 297 W/m² | - |
| 1778058010 | 13.89° C | 66% | 1009.5 hPa | - | - | 298 W/m² | - |
| 1778057410 | 13.33° C | 69% | 1009.6 hPa | - | - | 298 W/m² | - |
* Rain since midnight (hover to see other rain measurements)
** Current wind speed in m/s (hover to see current wind gust speed)